Regional Weather Roundup
Issued by NWS

Home | Current Version | Previous Version | Graphics & Text | Print | Product List | Glossary On
Versions: 1 2 3 4 5 6 7 8 9 10 11 12 13 14 15 16 17 18 19 20 21 22 23 24 25 26 27 28 29 30 31 32 33 34 35 36 37 38 39 40 41 42 43 44 45 46 47 48 49 50
195
ASUS43 KLOT 291412
RWRIL

ILLINOIS REGIONAL WEATHER ROUNDUP
NATIONAL WEATHER SERVICE CHICAGO/ROMEOVILLE IL
900 AM CDT THU SEP 29 2016

NOTE: "FAIR" INDICATES FEW OR NO CLOUDS BELOW 12,000 FEET WITH NO
SIGNIFICANT WEATHER AND/OR OBSTRUCTIONS TO VISIBILITY.

* THESE STATIONS ARE NOT UNDER NWS QUALITY CONTROL. THEY ALSO MAY NOT
  REPORT WEATHER SUCH AS PRECIPITATION OR FOG.

ILZ001-002-007-009-015-016-024-291500-
NORTHWEST ILLINOIS

CITY           SKY/WX    TMP DP  RH WIND       PRES   REMARKS
MOLINE         CLOUDY    56  50  80 N8        30.26R
STERLING*      CLOUDY    58  53  84 N14       30.23S
SAVANNA*       PTSUNNY   55  51  84 N12G17    30.27R
$$

ILZ003-004-008-010-011-017-018-291500-
NORTH CENTRAL ILLINOIS

CITY           SKY/WX    TMP DP  RH WIND       PRES   REMARKS
ROCKFORD       PTSUNNY   60  53  77 N14G24    30.25R
FREEPORT*      CLOUDY    55  51  86 N12G20    30.28R
ROCHELLE*      CLOUDY    59  54  83 N17G24    30.22R
DE KALB*       CLOUDY    60  55  83 N15G22    30.20S
$$

ILZ005-006-012>014-019>023-291500-
NORTHEAST ILLINOIS

CITY           SKY/WX    TMP DP  RH WIND       PRES   REMARKS
CHICAGO-OHARE  CLOUDY    63  57  81 N18G26    30.15R
CHICAGO-MIDWAY CLOUDY    65  57  75 NE18G26   30.13R
AURORA         PTSUNNY   64  55  72 N18G30    30.16R
LANSING*       LGT RAIN  61  60  98 NE10G28   30.11S
JOLIET*        CLOUDY    64  59  85 N15G23    30.13S
WAUKEGAN       CLOUDY    62  57  83 N15G28    30.18R
DUPAGE AIRPORT PTSUNNY   61  55  81 N18G29    30.16R
KANKAKEE*      HVY RAIN  59  58  96 NW5       30.11S
WHEELING       CLOUDY    62  56  80 N14G23    30.17R
MORRIS*        CLOUDY    62  56  82 N6        30.13S
ROMEOVILLE*    CLOUDY    62  60  93 N12G23    30.13R
NORTHERLY ISL    N/A     62  57  83 N16         N/A
$$

LMZ740>746-291500-
SOUTHERN LAKE MICHIGAN

STATION/POSITION SKY/WX   TEMP    WIND        PRES    VSBY  WAVE
                          AIR SEA DIR/SP/G                  HT/PER
                          (F)     (DEG/KT/KT) (MB)    (MI)  (FT/S)
SOUTHERN BUOY              64 69   60/ 25/ 29 1020.9R         7/ 7
WILMETTE HARBOR            62 55   70/ 19/ 25   N/A           8/ 8
HARRISON CRIB              65      30/ 26/ 28   N/A
BURNHAM HARBOR             62      40/ 12/ 18   N/A
CALUMET HARBOR             63      10/ 16/ 23 1019.5R
BURNS HARBOR               62      60/ 27/ 32 1019.6R
MICHIGAN CITY              60      30/ 24/ 26   N/A
MICHIGAN CITY 6N           61 65   50/ 21/ 27   N/A           7/ 7
ST. JOSEPH                 60 64   40/ 14/ 17 1020.1          6/ 6
$$

ILZ025>027-034>036-040-047-049-050-058-095>099-291500-
WEST-CENTRAL ILLINOIS

CITY           SKY/WX    TMP DP  RH WIND       PRES   REMARKS
QUINCY         CLOUDY    55  51  86 N14       30.24R
GALESBURG*     CLOUDY    55  51  87 N13       30.24R
MACOMB*        CLOUDY    55  52  89 N13G21    30.26R
JACKSONVILLE*  CLOUDY    59  53  81 N14       30.18S
PITTSFIELD*    CLOUDY    55  52  88 NW10G18   30.23R
$$

ILZ028>032-037-038-041>044-048-051>054-059>061-291500-
CENTRAL ILLINOIS

CITY           SKY/WX    TMP DP  RH WIND       PRES   REMARKS
PONTIAC        CLOUDY    60  60  99 N10       30.15S
BLOOMINGTON    CLOUDY    58  54  86 N13       30.14R
DECATUR        CLOUDY    62  55  77 N13       30.12R
PEORIA         CLOUDY    59  55  87 N9G18     30.17S
LACON*         SUNNY     62  53  73 N10G18    30.17R
LINCOLN*       DRIZZLE   58  57  99 N10       30.16R
SPRINGFIELD    LGT RAIN  57  55  93 N9        30.17R FOG
TAYLORVILLE    CLOUDY    58  54  85 N16       30.13R
$$

ILZ033-039-045-046-055>057-062-063-291500-
EAST-CENTRAL ILLINOIS

CITY           SKY/WX    TMP DP  RH WIND       PRES   REMARKS
CHAMPAIGN      PTSUNNY   60  55  83 N12       30.11R
RANTOUL*       CLOUDY    61  57  87 N9        30.11R
MATTOON        CLOUDY    58  55  90 NE16G22   30.08R
PARIS*         CLOUDY    57  56  94 CALM      30.09R
$$

ILZ079-100>102-291500-
SOUTHWEST ILLINOIS

CITY           SKY/WX    TMP DP  RH WIND       PRES   REMARKS
ALTON          CLOUDY    55  50  82 NW9       30.16S
BELLEVILLE     PTSUNNY   57  53  85 NW12G20   30.13R
CAHOKIA*       CLOUDY    58  50  75 NW13      30.16S
SPARTA*        CLOUDY    56  52  86 NW9       30.14S
$$

ILZ064>066-069>071-074>076-080>082-084>086-088>090-092>094-291500-
SOUTH-CENTRAL ILLINOIS

CITY           SKY/WX    TMP DP  RH WIND       PRES   REMARKS
CARBONDALE     CLOUDY    55  53  93 NW10      30.11R
CAIRO*         PTSUNNY   55  51  86 NW7       30.12S
EFFINGHAM*     CLOUDY    57  57 100 CALM      30.10R
MARION         CLOUDY    55  55 100 NW7       30.11S
MT. VERNON     CLOUDY    55  48  76 CALM      30.09S
CENTRALIA*     CLOUDY    58  55  87 NW10      30.09S
SALEM*         CLOUDY    58  54  86 NW10G16   30.09S
METROPOLIS*    CLOUDY    56  52  86 NW6       30.11R
$$

ILZ067-068-072-073-078-083-087-091-291500-
SOUTHEAST ILLINOIS

CITY           SKY/WX    TMP DP  RH WIND       PRES   REMARKS
LAWRENCEVILLE  LGT RAIN  57  54  89 N8        30.06R
FLORA*         CLOUDY    59  55  86 N7        30.08R
FAIRFIELD*     CLOUDY    59  54  83 NW5       30.07R
HARRISBURG*    CLOUDY    57  53  87 NW12      30.09R
ROBINSON*      PTSUNNY   56  54  93 NE9       30.08R
CARMI*         CLOUDY    56  55  94 NW9       30.06R
$$

ABBREVIATIONS USED IN REMARKS
   TC - TEMPERATURE IN CELSIUS
  WCI - WIND CHILL INDEX
   HX - HEAT INDEX
  VSB - VISIBILITY
$$





USA.gov is the U.S. government's official web portal to all federal, state and local government web resources and services.